SCP
0 0 0 0 0 0 0 0 0 0 0 0 0 0 0 0 0 0 0 0 0 0 0 0 0 0 0 0 0 0 0 0 0 0 0 0 0 0 0 0 0 0 0 0
0 0 0 0 0 0 0 0 0 0 0 0 0 0 0 0 0 0 0 0 0 0 0 0 0 0 0 0 0 0 0 0 0 0 0 0 0 0 0 0 0 0 0 0
0 0 0 0 0 0 0 0 0 0 0 0 0 0 0 0 0 0 0 0 0 0 0 0 0 0 0 0 0 0 0 0 0 0 0 0 0 0 0 0 0 0 0 0
0 0 0 0 0 0 0 0 0 0 0 0 0 0 0 0 0 0 0 0 0 0 0 0 0 0 0 0 0 0 0 0 0 0 0 0 0 0 0 0 0 0 0 0
0 0 0 0 0 0 0 0 0 0 0 0 0 0 0 0 0 0 0 0 0 0 0 0 0 0 0 0 0 0 0 0 0 0 0 0 0 0 0 0 0 0 0 0
0 0 0 0 0 0 0 0 0 0 0 0 0 0 0 0 0 0 0 0 0 0 0 0 0 0 0 0 0 0 0 0 0 0 0 0 0 0 0 0 0 0 0 0
0 0 0 0 0 0 0 0 0 0 0 0 0 0 0 0 0 0 0 0 0 0 0 0 0 0 0 0 0 0 0 0 0 0 0 0 0 0 0 0 0 0 0 0
0 0 0 0 0 0 0 0 0 0 0 0 0 0 0 0 0 0 0 0 0 0 0 0 0 0 0 0 0 0 0 0 0 0 0 0 0 0 0 0 0 0 0 0
0 0 0 0 0 0 0 0 0 0 0 0 0 0 0 0 0 0 0 0 0 0 0 0 0 0 0 0 0 0 0 0 0 0 0 0 0 0 0 0 0 0 0 0
0 0 0 0 0 0 0 0 0 0 0 0 0 0 0 0 0 0 0 0 0 0 0 0 0 0 0 0 0 0 0 0 0 0 0 0 0 0 0 0 0 0 0 0
0 0 0 0 0 0 0 0 0 0 0 0 0 0 0 0 0 0 0 0 0 0 0 0 0 0 0 0 0 0 0 0 0 0 0 0 0 0 0 0 0 0 0 0
0 0 0 0 0 0 0 0 0 0 0 0 0 0 0 0 0 0 0 0 0 0 0 0 0 0 0 0 0 0 0 0 0 0 0 0 0 0 0 0 0 0 0 0
0 0 0 0 0 0 0 0 0 0 0 0 0 0 0 0 0 0 0 0 0 0 0 0 0 0 0 0 0 0 0 0 0 0 0 0 0 0 0 0 0 0 0 0
0 0 0 0 0 0 0 0 0 0 0 0 0 0 0 0 0 0 0 0 0 0 0 0 0 0 0 0 0 0 0 0 0 0 0 0 0 0 0 0 0 0 0 0
0 0 0 0 0 0 0 0 0 0 0 0 0 0 0 0 0 0 0 0 0 0 0 0 0 0 0 0 0 0 0 0 0 0 0 0 0 0 0 0 0 0 0 0
0 0 0 0 0 0 0 0 0 0 0 0 0 0 0 0 0 0 0 0 0 0 0 0 0 0 0 0 0 0 0 0 0 0 0 0 0 0 0 0 0 0 0 0
0 0 0 0 0 0 0 0 0 0 0 0 0 0 0 0 0 0 0 0 0 0 0 0 0 0 0 0 0 0 0 0 0 0 0 0 0 0 0 0 0 0 0 0
0 0 0 0 0 0 0 0 0 0 0 0 0 0 0 0 0 0 0 0 0 0 0 0 0 0 0 0 0 0 0 0 0 0 0 0 0 0 0 0 0 0 0 0
0 0 0 0 0 0 0 0 0 0 0 0 0 0 0 0 0 0 0 0 0 0 0 0 0 0 0 0 0 0 0 0 0 0 0 0 0 0 0 0 0 0 0 0
0 0 0 0 0 0 0 0 0 0 0 0 0 0 0 0 0 0 0 0 0 0 0 0 0 0 0 0 0 0 0 0 0 0 0 0 0 0 0 0 0 0 0 0
0 0 0 0 0 0 0 0 0 0 0 0 0 0 0 0 0 0 0 0 0 0 0 0 0 0 0 0 0 0 0 0 0 0 0 0 0 0 0 0 0 0 0 0
0 0 0 0 0 0 0 0 0 0 0 0 0 0 0 0 0 0 0 0 0 0 0 0 0 0 0 0 0 0 0 0 0 0 0 0 0 0 0 0 0 0 0 0
0 0 0 0 0 0 0 0 0 0 0 0 0 0 0 0 0 0 0 0 0 0 0 0 0 0 0 0 0 0 0 0 0 0 0 0 0 0 0 0 0 0 0 0
0 0 0 0 0 0 0 0 0 0 0 0 0 0 0 0 0 0 0 0 0 0 0 0 0 0 0 0 0 0 0 0 0 0 0 0 0 0 0 0 0 0 0 0
0 0 0 0 0 0 0 0 0 0 0 0 0 0 0 0 0 0 0 0 0 0 0 0 0 0 0 0 0 0 0 0 0 0 0 0 0 0 0 0 0 0 0 0
0 0 0 0 0 0 0 0 0 0 0 0 0 0 0 0 0 0 0 0 0 0 0 0 0 0 0 0 0 0 0 0 0 0 0 0 0 0 0 0 0 0 0 0
0 0 0 0 0 0 0 0 0 0 0 0 0 0 0 0 0 0 0 0 0 0 0 0 0 0 0 0 0 0 0 0 0 0 0 0 0 0 0 0 0 0 0 0
Wind_Speed
3 1 4 7 10 13 15 15 14 14 16 14 9 9 8 8 8 7 7 6 5 3 2 1 1 2 3 4 5 5 7 8 9 10 11 11 12 13 14 14 15 15 16 16
4 2 4 6 11 14 16 17 19 20 18 8 3 5 7 9 9 9 8 6 4 2 1 0 2 3 4 5 6 7 8 9 10 10 11 12 13 14 14 15 15 15 16 17
5 3 3 11 14 17 13 13 13 17 12 4 6 8 8 9 10 9 7 5 3 1 1 1 3 4 6 6 7 8 9 10 10 11 12 13 14 15 15 16 16 16 16 17
3 4 11 6 1 6 12 14 13 10 4 6 6 7 6 7 8 7 5 4 2 1 1 2 3 5 6 7 8 9 10 11 11 11 13 14 15 15 16 15 15 15 16 17
5 7 11 6 5 7 9 9 9 11 8 8 9 7 6 5 5 5 4 2 1 1 2 3 5 6 7 8 9 10 11 12 12 12 13 14 15 16 16 15 16 16 16 17
6 7 9 4 4 4 3 8 6 9 10 11 11 8 6 7 6 4 3 2 1 2 3 5 5 6 8 10 11 11 12 13 13 14 14 15 16 17 15 15 16 16 16 16
10 10 10 1 6 7 7 3 7 9 11 12 8 2 7 8 5 4 2 1 2 3 5 5 6 7 9 11 12 12 12 13 14 14 15 16 16 15 15 15 16 16 17 16
9 10 10 7 9 9 2 4 8 9 9 8 6 6 6 5 4 3 2 2 3 5 6 6 7 8 11 12 13 12 13 14 15 15 14 13 15 15 15 15 16 16 15 15
9 6 2 6 4 1 3 6 7 8 7 7 6 6 5 4 3 3 3 3 4 6 8 8 8 9 12 13 13 13 14 15 15 15 14 14 15 15 14 13 12 12 13 13
5 5 3 4 3 3 5 6 6 7 7 6 6 5 4 3 3 3 4 4 5 7 9 10 10 11 12 13 13 13 15 15 14 14 14 14 12 11 12 12 12 12 13 14
6 3 3 5 6 6 6 7 8 7 5 6 5 5 4 3 4 4 5 5 6 8 10 12 12 13 13 13 13 14 15 14 14 13 14 13 12 11 13 13 14 15 14 13
6 6 6 5 7 8 9 8 8 7 6 5 4 4 4 4 4 5 6 7 8 10 11 13 13 14 14 13 13 14 13 13 12 11 11 12 13 13 14 17 22 24 24 23
2 3 3 5 7 7 7 7 7 6 6 5 4 3 4 4 5 6 8 9 10 11 12 14 14 15 14 13 13 13 14 14 11 11 12 12 12 13 14 14 18 21 22 24
4 5 5 5 6 7 7 7 6 5 4 3 3 3 4 5 7 8 10 10 11 12 13 14 15 15 15 13 13 13 14 13 13 11 11 12 12 12 13 14 15 13 15 21
4 3 5 7 8 7 7 6 6 4 3 3 3 4 5 7 9 10 11 11 11 13 14 14 15 16 14 13 13 14 13 11 10 11 11 12 12 12 12 14 14 14 13 14
6 7 8 9 8 7 6 5 4 3 3 4 5 6 7 8 10 11 12 11 12 14 15 15 15 15 14 13 13 12 11 14 14 12 11 11 11 12 12 13 13 13 13 13
9 8 8 8 7 6 5 4 3 3 4 5 6 7 8 9 11 12 12 12 12 14 14 15 15 14 13 12 12 10 10 11 15 12 11 11 11 12 12 12 12 13 13 14
5 6 7 7 6 5 4 3 3 4 5 6 7 8 9 11 13 13 13 13 14 14 14 14 13 13 13 12 11 10 10 10 10 11 11 11 12 12 12 12 13 14 13 14
7 7 6 5 4 3 3 3 4 5 6 7 8 10 11 12 12 13 13 13 14 15 13 12 15 15 14 13 13 10 11 11 11 11 11 14 13 11 12 12 12 13 13 12
6 5 4 3 2 2 3 4 5 6 7 7 9 10 12 12 12 12 13 13 11 11 13 14 14 13 12 12 14 10 11 12 12 12 11 11 11 12 12 12 13 13 12 12
4 3 2 1 2 3 5 6 6 8 9 9 10 11 12 13 12 12 12 13 12 12 13 16 12 11 10 12 15 11 11 11 11 11 11 11 12 12 12 12 12 12 12 12
2 1 2 3 4 6 6 6 7 9 10 10 10 11 12 12 12 12 12 11 13 14 12 11 10 13 16 18 12 11 11 11 11 11 11 11 11 12 12 13 12 12 11 11
2 3 4 5 6 7 8 8 8 9 10 10 11 12 12 12 10 11 12 10 10 15 13 11 15 21 24 15 11 11 12 12 11 11 11 11 11 11 12 13 12 11 11 11
4 5 5 6 6 7 9 9 8 8 10 11 11 11 11 11 10 9 10 14 17 18 13 15 21 23 22 12 11 11 11 11 11 11 11 11 11 11 11 11 12 11 11 13
5 6 6 6 7 7 9 9 9 10 10 9 11 11 10 9 11 11 12 14 17 18 13 15 20 21 15 11 11 11 11 11 11 11 11 11 11 11 11 11 11 11 11 11
5 5 6 7 7 7 7 7 8 8 9 10 10 9 9 9 11 11 11 13 16 18 14 11 12 13 11 11 11 12 11 12 12 10 11 11 12 12 11 11 14 11 11 11
6 6 6 6 6 6 6 7 9 10 9 10 12 11 11 11 11 12 13 12 12 12 11 11 11 11 11 11 11 11 11 10 10 10 10 11 11 11 11 13 11 11 11 11
Wind_Direction
256 110 179 206 202 198 213 233 248 257 258 257 237 220 204 187 173 165 158 154 150 145 128 98 358 330 328 321 317 313 307 305 307 309 307 304 303 302 301 299 297 295 294 292
211 192 219 243 236 223 229 241 249 261 267 274 245 198 190 181 171 167 162 157 148 143 148 301 321 319 314 310 311 307 303 304 307 305 304 303 302 302 301 299 298 296 294 293
228 162 224 248 237 226 223 225 234 248 260 183 182 185 180 170 166 165 161 158 160 175 215 301 316 311 308 309 307 303 302 302 303 303 302 302 302 301 300 300 299 297 295 293
198 179 236 253 106 228 233 241 234 244 222 180 172 147 146 158 163 160 157 162 172 198 261 293 298 299 301 301 300 300 300 301 302 303 301 301 302 301 301 301 299 298 296 296
193 235 261 258 207 192 211 247 221 218 195 156 136 136 148 152 154 148 149 155 171 250 281 286 291 298 298 296 298 298 300 303 305 303 301 301 301 301 302 301 299 298 298 297
191 223 245 241 136 160 191 256 190 187 170 158 160 185 169 153 149 146 147 162 221 266 275 281 292 298 295 296 298 300 304 304 304 302 300 299 300 301 301 299 298 299 296 296
219 236 258 187 138 164 213 284 146 169 162 163 177 132 119 139 146 150 160 202 257 274 278 286 295 296 293 297 298 303 304 301 299 298 298 299 299 298 299 299 298 297 297 296
204 223 242 145 160 200 237 105 151 156 157 159 141 119 130 144 152 167 201 239 266 278 285 292 294 294 293 296 301 303 301 299 298 299 299 297 297 298 299 299 299 299 299 300
201 217 55 162 196 170 137 153 153 152 149 147 147 155 156 165 177 202 238 258 271 282 290 294 294 291 291 298 304 304 301 299 299 300 298 297 297 298 300 299 297 299 299 299
220 232 207 207 196 172 165 149 136 137 140 147 153 158 169 183 205 234 253 269 278 284 289 295 300 299 295 299 301 299 298 299 300 299 299 299 296 294 294 296 296 296 297 298
227 213 191 207 194 163 137 126 123 121 130 145 153 168 184 204 229 251 266 275 278 280 287 293 299 299 300 301 302 299 298 298 298 297 298 298 296 294 293 288 288 293 294 296
213 189 190 180 166 158 146 143 141 137 138 147 166 180 201 231 249 264 274 280 281 283 288 293 297 298 299 301 300 297 297 298 298 299 298 297 298 297 286 283 290 291 291 293
126 129 135 128 139 148 148 143 145 149 154 162 176 199 224 250 265 272 276 280 283 289 292 295 297 296 297 299 297 293 292 295 296 296 297 298 298 299 301 299 294 294 294 297
144 135 134 144 144 140 135 134 134 135 149 172 198 224 246 264 274 277 281 286 291 292 292 293 294 294 298 300 295 290 291 291 290 292 294 295 295 296 297 301 305 303 301 301
156 153 138 130 128 126 127 132 139 153 177 212 233 249 260 270 279 284 289 292 292 290 290 293 294 295 300 300 295 292 291 289 291 292 292 292 292 294 295 297 298 301 303 304
130 123 129 135 138 140 144 153 169 194 222 247 261 269 276 280 284 287 289 291 291 292 295 296 294 296 302 300 295 291 288 287 290 292 292 292 294 294 295 296 298 300 302 306
144 145 148 150 151 155 165 179 202 229 251 263 276 286 289 288 287 288 291 295 292 289 291 291 292 296 297 294 292 290 290 290 291 290 289 291 293 294 295 296 298 299 299 301
149 145 152 154 159 167 184 206 231 251 263 276 287 287 286 287 289 293 297 299 296 292 290 291 293 297 294 292 292 290 289 288 289 289 290 291 293 294 295 296 297 298 299 302
125 128 132 140 154 173 204 237 257 269 277 281 283 284 286 286 286 290 294 295 293 293 295 299 301 298 294 294 295 290 287 287 288 289 291 294 295 293 294 294 296 298 299 301
118 122 126 133 153 206 244 265 276 280 282 283 282 283 284 286 289 292 293 288 283 285 293 298 298 294 293 294 295 289 286 287 290 293 293 292 293 294 295 294 295 297 298 299
124 131 145 204 261 267 269 276 279 281 285 284 280 281 285 289 291 290 289 290 292 295 297 298 296 293 295 295 296 289 288 289 291 293 293 293 293 294 294 294 296 297 298 299
155 205 250 267 273 278 280 280 277 279 282 282 281 281 284 288 290 288 280 280 289 296 298 295 294 294 298 299 294 291 291 291 291 292 291 291 292 293 293 295 296 297 298 298
246 258 265 269 274 282 286 282 277 276 278 280 283 284 285 288 291 289 291 291 296 299 299 292 295 299 302 302 295 293 292 291 291 291 290 290 291 291 292 294 295 296 297 297
260 265 270 278 281 279 281 285 284 280 279 280 277 276 280 286 286 280 283 292 296 298 296 295 298 301 304 299 294 292 291 290 290 289 289 290 291 291 291 292 293 294 295 297
268 271 272 274 275 276 281 288 289 285 283 281 283 282 278 276 282 290 293 295 297 300 297 298 300 302 301 295 293 292 290 288 288 290 291 294 293 293 292 292 293 294 295 295
271 274 274 272 272 278 282 284 284 287 290 291 291 292 291 289 288 290 292 294 296 296 297 296 298 299 295 294 292 292 291 293 293 292 292 293 292 292 291 292 294 293 293 293
274 274 275 276 273 271 275 280 283 287 289 290 293 296 295 294 293 294 295 294 295 296 296 296 297 296 295 294 294 294 293 293 292 291 292 292 292 292 292 292 293 292 292 291